Location: Mapua
(41.2500°S, 173.1000°E)
Time: 10:32:15
(UTC+12:00)

ISS - Pass Details

Date: 01 April 2019
Orbit: 408 x 410 km, 51.6° (Epoch: 23 April)

Event Time Altitude Azimuth Distance (km) Brightness Sun altitude
Exits shadow 07:09:35 - 252° (WSW) 1,647 -1.4 -7.0°
Reaches altitude 10° 07:10:02 10° 247° (WSW) 1,505 -1.5 -6.9°
Maximum altitude 07:12:37 20° 197° (SSW) 1,039 -1.9 -6.4°
Drops below altitude 10° 07:15:14 10° 147° (SSE) 1,512 -0.5 -5.9°
Sets 07:17:43 0° 129° (SE) 2,380 1.0 -5.4°
